Time,TemperatureF,DewpointF,PressureIn,WindDirection,WindDirectionDegrees,WindSpeedMPH,WindSpeedGustMPH,Humidity,HourlyPrecipIn,Conditions,Clouds,dailyrainin,SoftwareType,DateUTC
2013-08-04 00:00:00,66.2,57.3,29.87,SE,131,3.0,5.0,73,0.00,,,0.00,Wunderground v.1.15,2013-08-04 04:00:00,
2013-08-04 00:01:00,66.2,57.3,29.87,WNW,295,3.0,5.0,73,0.00,,,0.00,Wunderground v.1.15,2013-08-04 04:01:00,
2013-08-04 00:02:00,66.1,57.2,29.87,SSW,194,3.0,5.0,73,0.00,,,0.00,Wunderground v.1.15,2013-08-04 04:02:00,
2013-08-04 00:03:00,66.0,57.5,29.87,WSW,254,3.0,3.0,74,0.00,,,0.00,Wunderground v.1.15,2013-08-04 04:03:00,
2013-08-04 00:05:00,65.9,57.4,29.87,WSW,255,3.0,4.0,74,0.00,,,0.00,Wunderground v.1.15,2013-08-04 04:05:00,
2013-08-04 00:06:00,65.8,57.3,29.87,SSE,159,3.0,4.0,74,0.00,,,0.00,Wunderground v.1.15,2013-08-04 04:06:00,
2013-08-04 00:11:00,65.4,57.6,29.87,South,186,3.0,4.0,76,0.00,,,0.00,Wunderground v.1.15,2013-08-04 04:11:00,
2013-08-04 00:17:00,65.1,57.7,29.87,SW,225,3.0,7.0,77,0.00,,,0.00,Wunderground v.1.15,2013-08-04 04:17:00,
2013-08-04 00:23:00,64.7,57.3,29.87,SSW,205,3.0,3.0,77,0.00,,,0.00,Wunderground v.1.15,2013-08-04 04:23:00,
2013-08-04 00:29:00,64.4,57.4,29.87,WSW,250,2.0,3.0,78,0.00,,,0.00,Wunderground v.1.15,2013-08-04 04:29:00,
2013-08-04 00:34:00,64.2,57.2,29.87,SW,235,1.0,3.0,78,0.00,,,0.00,Wunderground v.1.15,2013-08-04 04:34:00,
2013-08-04 00:40:00,64.2,57.2,29.87,WSW,242,2.0,7.0,78,0.00,,,0.00,Wunderground v.1.15,2013-08-04 04:40:00,
2013-08-04 00:45:00,64.2,57.2,29.87,WSW,252,3.0,5.0,78,0.00,,,0.00,Wunderground v.1.15,2013-08-04 04:45:00,
2013-08-04 00:50:00,64.2,57.2,29.87,WSW,258,3.0,5.0,78,0.00,,,0.00,Wunderground v.1.15,2013-08-04 04:50:00,
2013-08-04 00:56:00,64.1,57.1,29.87,WNW,298,1.0,2.0,78,0.00,,,0.00,Wunderground v.1.15,2013-08-04 04:56:00,
2013-08-04 01:01:00,64.3,57.3,29.87,West,281,1.0,5.0,78,0.00,,,0.00,Wunderground v.1.15,2013-08-04 05:01:00,
2013-08-04 01:07:00,64.4,57.4,29.87,West,267,2.0,5.0,78,0.00,,,0.00,Wunderground v.1.15,2013-08-04 05:07:00,
2013-08-04 01:13:00,64.4,57.7,29.87,West,272,2.0,2.0,79,0.00,,,0.00,Wunderground v.1.15,2013-08-04 05:13:00,
2013-08-04 01:18:00,64.5,57.8,29.87,WSW,250,2.0,3.0,79,0.00,,,0.00,Wunderground v.1.15,2013-08-04 05:18:00,
2013-08-04 01:24:00,64.5,57.8,29.87,West,269,3.0,3.0,79,0.00,,,0.00,Wunderground v.1.15,2013-08-04 05:24:00,
2013-08-04 01:30:00,64.4,57.7,29.87,West,263,2.0,4.0,79,0.00,,,0.00,Wunderground v.1.15,2013-08-04 05:30:00,
2013-08-04 01:35:00,64.3,58.0,29.87,SW,229,2.0,3.0,80,0.00,,,0.00,Wunderground v.1.15,2013-08-04 05:35:00,
2013-08-04 01:40:00,64.2,57.9,29.87,NW,304,2.0,3.0,80,0.00,,,0.00,Wunderground v.1.15,2013-08-04 05:40:00,
2013-08-04 01:46:00,64.2,58.2,29.87,West,262,3.0,5.0,81,0.00,,,0.00,Wunderground v.1.15,2013-08-04 05:46:00,
2013-08-04 01:51:00,64.1,58.1,29.87,West,277,3.0,6.0,81,0.00,,,0.00,Wunderground v.1.15,2013-08-04 05:51:00,
2013-08-04 01:57:00,63.9,58.3,29.87,NW,307,3.0,5.0,82,0.00,,,0.00,Wunderground v.1.15,2013-08-04 05:57:00,
2013-08-04 02:03:00,63.7,58.4,29.87,WNW,285,2.0,2.0,83,0.00,,,0.00,Wunderground v.1.15,2013-08-04 06:03:00,
2013-08-04 02:09:00,63.5,58.2,29.87,WNW,286,1.0,3.0,83,0.00,,,0.00,Wunderground v.1.15,2013-08-04 06:09:00,
2013-08-04 02:14:00,63.5,58.2,29.87,WNW,285,1.0,1.0,83,0.00,,,0.00,Wunderground v.1.15,2013-08-04 06:14:00,
2013-08-04 02:20:00,63.4,58.5,29.87,WNW,293,1.0,4.0,84,0.00,,,0.00,Wunderground v.1.15,2013-08-04 06:20:00,
2013-08-04 02:25:00,63.5,58.6,29.87,NW,307,2.0,3.0,84,0.00,,,0.00,Wunderground v.1.15,2013-08-04 06:25:00,
2013-08-04 02:30:00,63.4,58.5,29.87,WSW,257,2.0,3.0,84,0.00,,,0.00,Wunderground v.1.15,2013-08-04 06:30:00,
2013-08-04 02:36:00,63.4,58.1,29.87,West,279,3.0,6.0,83,0.00,,,0.00,Wunderground v.1.15,2013-08-04 06:36:00,
2013-08-04 02:41:00,63.4,58.1,29.87,West,263,4.0,6.0,83,0.00,,,0.00,Wunderground v.1.15,2013-08-04 06:41:00,
2013-08-04 02:47:00,63.3,58.0,29.87,WNW,290,4.0,6.0,83,0.00,,,0.00,Wunderground v.1.15,2013-08-04 06:47:00,
2013-08-04 02:52:00,63.3,58.0,29.87,West,277,4.0,6.0,83,0.00,,,0.00,Wunderground v.1.15,2013-08-04 06:52:00,
2013-08-04 02:58:00,63.3,58.0,29.87,WNW,293,4.0,5.0,83,0.00,,,0.00,Wunderground v.1.15,2013-08-04 06:58:00,
2013-08-04 03:03:00,63.3,58.0,29.87,West,279,4.0,4.0,83,0.00,,,0.00,Wunderground v.1.15,2013-08-04 07:03:00,
2013-08-04 03:08:00,63.3,58.0,29.87,WNW,293,3.0,7.0,83,0.00,,,0.00,Wunderground v.1.15,2013-08-04 07:08:00,
2013-08-04 03:14:00,63.2,57.9,29.87,WNW,285,3.0,3.0,83,0.00,,,0.00,Wunderground v.1.15,2013-08-04 07:14:00,
2013-08-04 03:20:00,63.1,57.9,29.87,WSW,249,2.0,3.0,83,0.00,,,0.00,Wunderground v.1.15,2013-08-04 07:20:00,
2013-08-04 03:25:00,62.9,58.0,29.87,West,267,2.0,3.0,84,0.00,,,0.00,Wunderground v.1.15,2013-08-04 07:25:00,
2013-08-04 03:31:00,62.7,57.8,29.87,West,281,2.0,6.0,84,0.00,,,0.00,Wunderground v.1.15,2013-08-04 07:31:00,
2013-08-04 03:36:00,62.6,57.7,29.87,WNW,288,3.0,6.0,84,0.00,,,0.00,Wunderground v.1.15,2013-08-04 07:36:00,
2013-08-04 03:41:00,62.6,57.7,29.87,SSW,204,2.0,6.0,84,0.00,,,0.00,Wunderground v.1.15,2013-08-04 07:41:00,
2013-08-04 03:47:00,62.4,57.8,29.87,WSW,255,2.0,8.0,85,0.00,,,0.00,Wunderground v.1.15,2013-08-04 07:47:00,
2013-08-04 03:52:00,62.2,57.6,29.87,WNW,297,2.0,8.0,85,0.00,,,0.00,Wunderground v.1.15,2013-08-04 07:52:00,
2013-08-04 03:57:00,62.0,57.4,29.87,WSW,256,2.0,5.0,85,0.00,,,0.00,Wunderground v.1.15,2013-08-04 07:57:00,
2013-08-04 04:03:00,61.8,57.6,29.87,SW,232,2.0,2.0,86,0.00,,,0.00,Wunderground v.1.15,2013-08-04 08:03:00,
2013-08-04 04:09:00,61.7,57.5,29.87,West,281,2.0,3.0,86,0.00,,,0.00,Wunderground v.1.15,2013-08-04 08:09:00,
2013-08-04 04:14:00,61.6,57.7,29.87,West,266,2.0,2.0,87,0.00,,,0.00,Wunderground v.1.15,2013-08-04 08:14:00,
2013-08-04 04:20:00,61.5,57.6,29.88,WNW,286,2.0,2.0,87,0.00,,,0.00,Wunderground v.1.15,2013-08-04 08:20:00,
2013-08-04 04:25:00,61.4,57.5,29.88,WNW,300,2.0,3.0,87,0.00,,,0.00,Wunderground v.1.15,2013-08-04 08:25:00,
2013-08-04 04:31:00,61.3,57.4,29.87,West,278,3.0,3.0,87,0.00,,,0.00,Wunderground v.1.15,2013-08-04 08:31:00,
2013-08-04 04:36:00,61.2,57.6,29.87,West,278,2.0,4.0,88,0.00,,,0.00,Wunderground v.1.15,2013-08-04 08:36:00,
2013-08-04 04:42:00,61.3,57.7,29.88,WNW,295,3.0,5.0,88,0.00,,,0.00,Wunderground v.1.15,2013-08-04 08:42:00,
2013-08-04 04:48:00,61.3,57.4,29.87,WNW,295,3.0,5.0,87,0.00,,,0.00,Wunderground v.1.15,2013-08-04 08:48:00,
2013-08-04 04:53:00,61.3,57.4,29.87,WNW,286,3.0,3.0,87,0.00,,,0.00,Wunderground v.1.15,2013-08-04 08:53:00,
2013-08-04 04:58:00,61.2,57.6,29.87,WNW,285,3.0,7.0,88,0.00,,,0.00,Wunderground v.1.15,2013-08-04 08:58:00,
2013-08-04 05:03:00,61.2,57.3,29.87,WNW,297,4.0,6.0,87,0.00,,,0.00,Wunderground v.1.15,2013-08-04 09:03:00,
2013-08-04 05:09:00,61.1,57.2,29.88,NE,46,4.0,6.0,87,0.00,,,0.00,Wunderground v.1.15,2013-08-04 09:09:00,
2013-08-04 05:15:00,61.0,57.1,29.87,SW,235,3.0,3.0,87,0.00,,,0.00,Wunderground v.1.15,2013-08-04 09:15:00,
2013-08-04 05:20:00,60.9,57.3,29.88,WSW,257,2.0,4.0,88,0.00,,,0.00,Wunderground v.1.15,2013-08-04 09:20:00,
2013-08-04 05:25:00,60.7,57.1,29.88,WNW,298,2.0,2.0,88,0.00,,,0.00,Wunderground v.1.15,2013-08-04 09:25:00,
2013-08-04 05:31:00,60.6,57.0,29.88,West,266,2.0,5.0,88,0.00,,,0.00,Wunderground v.1.15,2013-08-04 09:31:00,
2013-08-04 05:36:00,60.5,57.2,29.88,WNW,296,2.0,3.0,89,0.00,,,0.00,Wunderground v.1.15,2013-08-04 09:36:00,
2013-08-04 05:41:00,60.4,57.1,29.88,WNW,293,2.0,4.0,89,0.00,,,0.00,Wunderground v.1.15,2013-08-04 09:41:00,
2013-08-04 05:46:00,60.5,57.2,29.88,West,266,3.0,4.0,89,0.00,,,0.00,Wunderground v.1.15,2013-08-04 09:46:00,
2013-08-04 05:52:00,60.5,57.2,29.88,WNW,287,3.0,4.0,89,0.00,,,0.00,Wunderground v.1.15,2013-08-04 09:52:00,
2013-08-04 05:57:00,60.4,57.1,29.88,WNW,286,2.0,5.0,89,0.00,,,0.00,Wunderground v.1.15,2013-08-04 09:57:00,
2013-08-04 06:03:00,60.5,57.2,29.88,WNW,290,3.0,5.0,89,0.00,,,0.00,Wunderground v.1.15,2013-08-04 10:03:00,
2013-08-04 06:08:00,60.4,57.1,29.89,WNW,285,4.0,5.0,89,0.00,,,0.00,Wunderground v.1.15,2013-08-04 10:08:00,
2013-08-04 06:14:00,60.4,57.1,29.88,West,281,3.0,3.0,89,0.00,,,0.00,Wunderground v.1.15,2013-08-04 10:14:00,
2013-08-04 06:20:00,60.3,57.0,29.88,NW,305,3.0,5.0,89,0.00,,,0.00,Wunderground v.1.15,2013-08-04 10:20:00,
2013-08-04 06:25:00,60.2,57.3,29.88,West,278,3.0,4.0,90,0.00,,,0.00,Wunderground v.1.15,2013-08-04 10:25:00,
2013-08-04 06:30:00,60.2,57.3,29.89,WNW,290,3.0,6.0,90,0.00,,,0.00,Wunderground v.1.15,2013-08-04 10:30:00,
2013-08-04 06:36:00,60.1,57.2,29.89,WNW,293,4.0,4.0,90,0.00,,,0.00,Wunderground v.1.15,2013-08-04 10:36:00,
2013-08-04 06:41:00,60.0,57.1,29.89,WNW,288,3.0,5.0,90,0.00,,,0.00,Wunderground v.1.15,2013-08-04 10:41:00,
2013-08-04 06:46:00,60.0,57.1,29.89,West,277,2.0,3.0,90,0.00,,,0.00,Wunderground v.1.15,2013-08-04 10:46:00,
2013-08-04 06:52:00,60.0,57.1,29.89,WNW,283,2.0,6.0,90,0.00,,,0.00,Wunderground v.1.15,2013-08-04 10:52:00,
2013-08-04 06:57:00,60.1,57.2,29.89,WNW,293,3.0,6.0,90,0.00,,,0.00,Wunderground v.1.15,2013-08-04 10:57:00,
2013-08-04 07:03:00,60.2,56.9,29.89,SW,232,3.0,3.0,89,0.00,,,0.00,Wunderground v.1.15,2013-08-04 11:03:00,
2013-08-04 07:09:00,60.2,56.9,29.89,WSW,253,2.0,4.0,89,0.00,,,0.00,Wunderground v.1.15,2013-08-04 11:09:00,
2013-08-04 07:15:00,60.2,56.9,29.89,SW,229,2.0,3.0,89,0.00,,,0.00,Wunderground v.1.15,2013-08-04 11:15:00,
2013-08-04 07:20:00,60.3,57.0,29.89,SW,235,2.0,6.0,89,0.00,,,0.00,Wunderground v.1.15,2013-08-04 11:20:00,
2013-08-04 07:26:00,60.5,57.6,29.89,WSW,254,2.0,4.0,90,0.00,,,0.00,Wunderground v.1.15,2013-08-04 11:26:00,
2013-08-04 07:32:00,60.7,57.4,29.90,West,276,3.0,6.0,89,0.00,,,0.00,Wunderground v.1.15,2013-08-04 11:32:00,
2013-08-04 07:37:00,61.0,57.7,29.90,West,271,4.0,5.0,89,0.00,,,0.00,Wunderground v.1.15,2013-08-04 11:37:00,
2013-08-04 07:43:00,61.4,58.1,29.90,WNW,285,4.0,5.0,89,0.00,,,0.00,Wunderground v.1.15,2013-08-04 11:43:00,
2013-08-04 07:48:00,61.6,58.3,29.90,WNW,284,4.0,6.0,89,0.00,,,0.00,Wunderground v.1.15,2013-08-04 11:48:00,
2013-08-04 07:54:00,61.8,58.5,29.90,WNW,285,5.0,5.0,89,0.00,,,0.00,Wunderground v.1.15,2013-08-04 11:54:00,
2013-08-04 07:59:00,61.8,58.5,29.90,WNW,290,4.0,5.0,89,0.00,,,0.00,Wunderground v.1.15,2013-08-04 11:59:00,
2013-08-04 08:04:00,61.8,58.5,29.90,WNW,295,4.0,4.0,89,0.00,,,0.00,Wunderground v.1.15,2013-08-04 12:04:00,
2013-08-04 08:10:00,62.0,58.7,29.90,WNW,290,5.0,7.0,89,0.00,,,0.00,Wunderground v.1.15,2013-08-04 12:10:00,
2013-08-04 08:15:00,62.3,58.7,29.90,WNW,297,4.0,6.0,88,0.00,,,0.00,Wunderground v.1.15,2013-08-04 12:15:00,
2013-08-04 08:21:00,62.4,58.5,29.90,WSW,257,5.0,6.0,87,0.00,,,0.00,Wunderground v.1.15,2013-08-04 12:21:00,
2013-08-04 08:27:00,62.3,58.7,29.90,WNW,288,5.0,8.0,88,0.00,,,0.00,Wunderground v.1.15,2013-08-04 12:27:00,
2013-08-04 08:33:00,62.1,58.5,29.90,West,281,5.0,5.0,88,0.00,,,0.00,Wunderground v.1.15,2013-08-04 12:33:00,
2013-08-04 08:38:00,62.0,58.4,29.90,West,273,5.0,5.0,88,0.00,,,0.00,Wunderground v.1.15,2013-08-04 12:38:00,
2013-08-04 08:44:00,61.8,58.2,29.90,WSW,243,5.0,7.0,88,0.00,,,0.00,Wunderground v.1.15,2013-08-04 12:44:00,
2013-08-04 08:49:00,61.9,58.3,29.90,WNW,283,5.0,8.0,88,0.00,,,0.00,Wunderground v.1.15,2013-08-04 12:49:00,
2013-08-04 08:55:00,62.6,59.0,29.90,West,267,5.0,7.0,88,0.00,,,0.00,Wunderground v.1.15,2013-08-04 12:55:00,
2013-08-04 09:01:00,63.0,59.1,29.90,WNW,302,5.0,7.0,87,0.00,,,0.00,Wunderground v.1.15,2013-08-04 13:01:00,
2013-08-04 09:07:00,63.3,59.4,29.90,WNW,293,5.0,7.0,87,0.00,,,0.00,Wunderground v.1.15,2013-08-04 13:07:00,
2013-08-04 09:12:00,63.2,59.3,29.90,WNW,294,6.0,7.0,87,0.00,,,0.00,Wunderground v.1.15,2013-08-04 13:12:00,
2013-08-04 09:17:00,63.0,58.7,29.91,WNW,297,7.0,8.0,86,0.00,,,0.00,Wunderground v.1.15,2013-08-04 13:17:00,
2013-08-04 09:23:00,63.0,59.1,29.91,WNW,288,7.0,9.0,87,0.00,,,0.00,Wunderground v.1.15,2013-08-04 13:23:00,
2013-08-04 09:28:00,63.3,59.0,29.91,West,281,6.0,9.0,86,0.00,,,0.00,Wunderground v.1.15,2013-08-04 13:28:00,
2013-08-04 09:34:00,63.6,59.7,29.91,WNW,283,6.0,6.0,87,0.00,,,0.00,Wunderground v.1.15,2013-08-04 13:34:00,
2013-08-04 09:38:00,63.5,59.6,29.91,WSW,252,6.0,11.0,87,0.00,,,0.00,Wunderground v.1.15,2013-08-04 13:38:00,
2013-08-04 09:44:00,63.3,59.0,29.91,West,277,7.0,8.0,86,0.00,,,0.00,Wunderground v.1.15,2013-08-04 13:44:00,
2013-08-04 09:50:00,63.4,59.5,29.91,WNW,293,7.0,17.0,87,0.00,,,0.00,Wunderground v.1.15,2013-08-04 13:50:00,
2013-08-04 09:55:00,63.9,60.3,29.91,NW,304,6.0,7.0,88,0.00,,,0.00,Wunderground v.1.15,2013-08-04 13:55:00,
2013-08-04 10:00:00,64.2,59.9,29.91,WNW,294,6.0,12.0,86,0.00,,,0.00,Wunderground v.1.15,2013-08-04 14:00:00,
2013-08-04 10:06:00,64.3,59.7,29.91,WSW,256,7.0,8.0,85,0.00,,,0.00,Wunderground v.1.15,2013-08-04 14:06:00,
2013-08-04 10:11:00,64.2,59.6,29.91,WNW,293,7.0,12.0,85,0.00,,,0.00,Wunderground v.1.15,2013-08-04 14:11:00,
2013-08-04 10:17:00,64.3,59.7,29.91,WNW,295,9.0,9.0,85,0.00,,,0.00,Wunderground v.1.15,2013-08-04 14:17:00,
2013-08-04 10:22:00,65.2,60.9,29.91,WNW,297,8.0,10.0,86,0.00,,,0.00,Wunderground v.1.15,2013-08-04 14:22:00,
2013-08-04 10:28:00,65.8,60.2,29.92,NE,48,6.0,9.0,82,0.00,,,0.00,Wunderground v.1.15,2013-08-04 14:28:00,
2013-08-04 10:34:00,66.1,60.4,29.92,WNW,300,6.0,7.0,82,0.00,,,0.00,Wunderground v.1.15,2013-08-04 14:34:00,
2013-08-04 10:39:00,65.4,59.4,29.92,West,272,7.0,10.0,81,0.00,,,0.00,Wunderground v.1.15,2013-08-04 14:39:00,
2013-08-04 10:44:00,65.0,59.0,29.92,WNW,284,8.0,9.0,81,0.00,,,0.00,Wunderground v.1.15,2013-08-04 14:44:00,
2013-08-04 10:50:00,65.9,59.9,29.91,NW,325,7.0,11.0,81,0.00,,,0.00,Wunderground v.1.15,2013-08-04 14:50:00,
2013-08-04 10:55:00,66.7,60.0,29.92,WNW,288,6.0,7.0,79,0.00,,,0.00,Wunderground v.1.15,2013-08-04 14:55:00,
2013-08-04 11:00:00,67.3,59.8,29.92,WNW,302,5.0,7.0,77,0.00,,,0.00,Wunderground v.1.15,2013-08-04 15:00:00,
2013-08-04 11:05:00,67.9,57.4,29.92,WNW,290,4.0,6.0,69,0.00,,,0.00,Wunderground v.1.15,2013-08-04 15:05:00,
2013-08-04 11:11:00,68.0,56.6,29.92,WNW,302,4.0,6.0,67,0.00,,,0.00,Wunderground v.1.15,2013-08-04 15:11:00,
2013-08-04 11:16:00,67.6,57.1,29.92,WNW,288,5.0,11.0,69,0.00,,,0.00,Wunderground v.1.15,2013-08-04 15:16:00,
2013-08-04 11:21:00,68.0,57.4,29.92,West,280,8.0,16.0,69,0.00,,,0.00,Wunderground v.1.15,2013-08-04 15:21:00,
2013-08-04 11:27:00,68.3,56.9,29.92,WNW,293,10.0,10.0,67,0.00,,,0.00,Wunderground v.1.15,2013-08-04 15:27:00,
2013-08-04 11:33:00,68.4,57.4,29.92,ESE,120,9.0,9.0,68,0.00,,,0.00,Wunderground v.1.15,2013-08-04 15:33:00,
2013-08-04 11:39:00,68.7,57.7,29.92,West,278,7.0,9.0,68,0.00,,,0.00,Wunderground v.1.15,2013-08-04 15:39:00,
2013-08-04 11:44:00,69.1,57.3,29.92,NW,311,7.0,12.0,66,0.00,,,0.00,Wunderground v.1.15,2013-08-04 15:44:00,
2013-08-04 11:50:00,69.0,58.4,29.93,NNE,27,9.0,13.0,69,0.00,,,0.00,Wunderground v.1.15,2013-08-04 15:50:00,
2013-08-04 11:55:00,69.6,59.0,29.93,WNW,290,8.0,13.0,69,0.00,,,0.00,Wunderground v.1.15,2013-08-04 15:55:00,
2013-08-04 12:01:00,68.8,56.6,29.93,WNW,297,7.0,16.0,65,0.00,,,0.00,Wunderground v.1.15,2013-08-04 16:01:00,
2013-08-04 12:06:00,69.3,56.6,29.93,NW,308,9.0,15.0,64,0.00,,,0.00,Wunderground v.1.15,2013-08-04 16:06:00,
2013-08-04 12:12:00,69.2,56.5,29.93,WNW,290,9.0,16.0,64,0.00,,,0.00,Wunderground v.1.15,2013-08-04 16:12:00,
2013-08-04 12:17:00,68.7,57.3,29.93,West,280,10.0,14.0,67,0.00,,,0.00,Wunderground v.1.15,2013-08-04 16:17:00,
2013-08-04 12:22:00,69.2,55.6,29.93,WNW,302,10.0,14.0,62,0.00,,,0.00,Wunderground v.1.15,2013-08-04 16:22:00,
2013-08-04 12:27:00,69.5,55.9,29.93,WNW,294,8.0,11.0,62,0.00,,,0.00,Wunderground v.1.15,2013-08-04 16:27:00,
2013-08-04 12:33:00,69.6,56.4,29.93,NW,322,8.0,8.0,63,0.00,,,0.00,Wunderground v.1.15,2013-08-04 16:33:00,
2013-08-04 12:38:00,69.4,55.8,29.93,NW,304,10.0,15.0,62,0.00,,,0.00,Wunderground v.1.15,2013-08-04 16:38:00,
2013-08-04 12:44:00,69.4,57.1,29.93,WNW,285,9.0,18.0,65,0.00,,,0.00,Wunderground v.1.15,2013-08-04 16:44:00,
2013-08-04 12:49:00,70.0,55.9,29.93,NNW,337,8.0,18.0,61,0.00,,,0.00,Wunderground v.1.15,2013-08-04 16:49:00,
2013-08-04 12:54:00,70.2,55.2,29.93,West,267,8.0,10.0,59,0.00,,,0.00,Wunderground v.1.15,2013-08-04 16:54:00,
2013-08-04 12:59:00,70.3,56.2,29.93,WNW,291,9.0,11.0,61,0.00,,,0.00,Wunderground v.1.15,2013-08-04 16:59:00,
2013-08-04 13:04:00,70.3,56.2,29.93,North,11,10.0,11.0,61,0.00,,,0.00,Wunderground v.1.15,2013-08-04 17:04:00,
2013-08-04 13:10:00,70.3,56.2,29.93,East,79,8.0,11.0,61,0.00,,,0.00,Wunderground v.1.15,2013-08-04 17:10:00,
2013-08-04 13:16:00,70.1,56.5,29.92,SSW,193,6.0,8.0,62,0.00,,,0.00,Wunderground v.1.15,2013-08-04 17:16:00,
2013-08-04 13:22:00,69.5,55.0,29.93,NNE,29,6.0,12.0,60,0.00,,,0.00,Wunderground v.1.15,2013-08-04 17:22:00,
2013-08-04 13:27:00,69.9,56.3,29.93,West,276,7.0,8.0,62,0.00,,,0.00,Wunderground v.1.15,2013-08-04 17:27:00,
2013-08-04 13:32:00,69.2,55.6,29.93,NE,56,7.0,12.0,62,0.00,,,0.00,Wunderground v.1.15,2013-08-04 17:32:00,
2013-08-04 13:38:00,69.8,57.1,29.93,WNW,290,7.0,13.0,64,0.00,,,0.00,Wunderground v.1.15,2013-08-04 17:38:00,
2013-08-04 13:43:00,69.0,55.0,29.93,NW,309,9.0,9.0,61,0.00,,,0.00,Wunderground v.1.15,2013-08-04 17:43:00,
2013-08-04 13:49:00,70.1,55.6,29.93,ENE,66,9.0,10.0,60,0.00,,,0.00,Wunderground v.1.15,2013-08-04 17:49:00,
2013-08-04 13:55:00,69.1,54.6,29.93,West,281,6.0,10.0,60,0.00,,,0.00,Wunderground v.1.15,2013-08-04 17:55:00,
2013-08-04 13:59:00,69.0,55.4,29.94,WNW,287,6.0,11.0,62,0.00,,,0.00,Wunderground v.1.15,2013-08-04 17:59:00,
2013-08-04 14:05:00,69.2,56.9,29.93,West,274,9.0,18.0,65,0.00,,,0.00,Wunderground v.1.15,2013-08-04 18:05:00,
2013-08-04 14:11:00,69.2,55.6,29.94,WNW,302,11.0,18.0,62,0.00,,,0.00,Wunderground v.1.15,2013-08-04 18:11:00,
2013-08-04 14:17:00,69.0,56.7,29.94,WSW,254,8.0,11.0,65,0.00,,,0.00,Wunderground v.1.15,2013-08-04 18:17:00,
2013-08-04 14:21:00,70.0,58.1,29.94,WNW,294,6.0,11.0,66,0.00,,,0.00,Wunderground v.1.15,2013-08-04 18:21:00,
2013-08-04 14:27:00,69.2,55.2,29.94,WNW,285,7.0,11.0,61,0.00,,,0.00,Wunderground v.1.15,2013-08-04 18:27:00,
2013-08-04 14:32:00,68.3,55.6,29.94,WNW,288,7.0,7.0,64,0.00,,,0.00,Wunderground v.1.15,2013-08-04 18:32:00,
2013-08-04 14:38:00,68.4,56.2,29.94,WNW,290,8.0,19.0,65,0.00,,,0.00,Wunderground v.1.15,2013-08-04 18:38:00,
2013-08-04 14:43:00,68.5,55.4,29.94,WNW,288,11.0,11.0,63,0.00,,,0.00,Wunderground v.1.15,2013-08-04 18:43:00,
2013-08-04 14:48:00,69.3,56.2,29.94,NW,322,11.0,13.0,63,0.00,,,0.00,Wunderground v.1.15,2013-08-04 18:48:00,
2013-08-04 14:54:00,69.8,56.6,29.94,WNW,299,8.0,9.0,63,0.00,,,0.00,Wunderground v.1.15,2013-08-04 18:54:00,
2013-08-04 14:59:00,68.5,55.4,29.94,West,271,8.0,12.0,63,0.00,,,0.00,Wunderground v.1.15,2013-08-04 18:59:00,
2013-08-04 15:05:00,67.8,54.3,29.94,WNW,288,9.0,17.0,62,0.00,,,0.00,Wunderground v.1.15,2013-08-04 19:05:00,
2013-08-04 15:09:00,67.4,55.2,29.94,NW,311,9.0,17.0,65,0.00,,,0.00,Wunderground v.1.15,2013-08-04 19:09:00,
2013-08-04 15:15:00,68.5,55.4,29.94,WNW,290,8.0,13.0,63,0.00,,,0.00,Wunderground v.1.15,2013-08-04 19:15:00,
2013-08-04 15:21:00,68.8,55.7,29.94,WNW,297,9.0,15.0,63,0.00,,,0.00,Wunderground v.1.15,2013-08-04 19:21:00,
2013-08-04 15:25:00,69.2,56.5,29.94,WNW,285,10.0,15.0,64,0.00,,,0.00,Wunderground v.1.15,2013-08-04 19:25:00,
2013-08-04 15:31:00,68.4,54.9,29.94,WNW,295,9.0,15.0,62,0.00,,,0.00,Wunderground v.1.15,2013-08-04 19:31:00,
2013-08-04 15:37:00,68.5,54.5,29.94,WNW,288,11.0,14.0,61,0.00,,,0.00,Wunderground v.1.15,2013-08-04 19:37:00,
2013-08-04 15:43:00,68.9,55.3,29.94,WNW,288,12.0,15.0,62,0.00,,,0.00,Wunderground v.1.15,2013-08-04 19:43:00,
2013-08-04 15:49:00,69.0,54.5,29.95,WNW,288,12.0,21.0,60,0.00,,,0.00,Wunderground v.1.15,2013-08-04 19:49:00,
2013-08-04 15:54:00,69.2,53.8,29.94,NW,304,12.0,12.0,58,0.00,,,0.00,Wunderground v.1.15,2013-08-04 19:54:00,
2013-08-04 16:00:00,69.1,55.1,29.95,WNW,290,12.0,16.0,61,0.00,,,0.00,Wunderground v.1.15,2013-08-04 20:00:00,
2013-08-04 16:06:00,69.5,54.5,29.95,WNW,290,11.0,16.0,59,0.00,,,0.00,Wunderground v.1.15,2013-08-04 20:06:00,
2013-08-04 16:11:00,69.3,54.8,29.94,West,278,11.0,16.0,60,0.00,,,0.00,Wunderground v.1.15,2013-08-04 20:11:00,
2013-08-04 16:17:00,69.1,54.2,29.95,West,281,12.0,17.0,59,0.00,,,0.00,Wunderground v.1.15,2013-08-04 20:17:00,
2013-08-04 16:23:00,68.4,54.4,29.95,West,266,13.0,17.0,61,0.00,,,0.00,Wunderground v.1.15,2013-08-04 20:23:00,
2013-08-04 16:28:00,68.9,54.9,29.95,West,269,11.0,13.0,61,0.00,,,0.00,Wunderground v.1.15,2013-08-04 20:28:00,
2013-08-04 16:34:00,69.8,56.6,29.95,South,181,9.0,9.0,63,0.00,,,0.00,Wunderground v.1.15,2013-08-04 20:34:00,
2013-08-04 16:40:00,70.0,55.0,29.95,WNW,285,8.0,13.0,59,0.00,,,0.00,Wunderground v.1.15,2013-08-04 20:40:00,
2013-08-04 16:45:00,69.1,55.1,29.95,WNW,295,10.0,16.0,61,0.00,,,0.00,Wunderground v.1.15,2013-08-04 20:45:00,
2013-08-04 16:51:00,68.9,54.9,29.95,WNW,288,11.0,16.0,61,0.00,,,0.00,Wunderground v.1.15,2013-08-04 20:51:00,
2013-08-04 16:57:00,68.7,53.8,29.95,WNW,290,11.0,12.0,59,0.00,,,0.00,Wunderground v.1.15,2013-08-04 20:57:00,
2013-08-04 17:03:00,69.1,55.1,29.95,West,270,11.0,12.0,61,0.00,,,0.00,Wunderground v.1.15,2013-08-04 21:03:00,
2013-08-04 17:09:00,68.5,54.5,29.95,East,80,9.0,13.0,61,0.00,,,0.00,Wunderground v.1.15,2013-08-04 21:09:00,
2013-08-04 17:14:00,68.5,54.5,29.95,WNW,290,7.0,13.0,61,0.00,,,0.00,Wunderground v.1.15,2013-08-04 21:14:00,
2013-08-04 17:20:00,68.7,53.8,29.95,East,97,8.0,18.0,59,0.00,,,0.00,Wunderground v.1.15,2013-08-04 21:20:00,
2013-08-04 17:23:00,69.0,55.0,29.95,WNW,290,9.0,11.0,61,0.00,,,0.00,Wunderground v.1.15,2013-08-04 21:23:00,
2013-08-04 17:29:00,69.4,55.4,29.96,WNW,293,9.0,14.0,61,0.00,,,0.00,Wunderground v.1.15,2013-08-04 21:29:00,
2013-08-04 17:34:00,69.4,54.4,29.95,WNW,283,10.0,16.0,59,0.00,,,0.00,Wunderground v.1.15,2013-08-04 21:34:00,
2013-08-04 17:40:00,69.8,54.8,29.95,NNE,27,9.0,16.0,59,0.00,,,0.00,Wunderground v.1.15,2013-08-04 21:40:00,
2013-08-04 17:45:00,69.5,55.0,29.95,NW,311,7.0,9.0,60,0.00,,,0.00,Wunderground v.1.15,2013-08-04 21:45:00,
2013-08-04 17:50:00,69.3,55.7,29.95,WNW,284,8.0,16.0,62,0.00,,,0.00,Wunderground v.1.15,2013-08-04 21:50:00,
2013-08-04 17:56:00,68.3,54.3,29.95,West,276,10.0,17.0,61,0.00,,,0.00,Wunderground v.1.15,2013-08-04 21:56:00,
2013-08-04 18:01:00,68.0,54.9,29.95,WNW,290,9.0,17.0,63,0.00,,,0.00,Wunderground v.1.15,2013-08-04 22:01:00,
2013-08-04 18:06:00,67.7,55.1,29.95,West,266,8.0,11.0,64,0.00,,,0.00,Wunderground v.1.15,2013-08-04 22:06:00,
2013-08-04 18:12:00,67.5,54.9,29.95,WNW,283,8.0,14.0,64,0.00,,,0.00,Wunderground v.1.15,2013-08-04 22:12:00,
2013-08-04 18:17:00,67.5,55.3,29.95,WNW,290,9.0,11.0,65,0.00,,,0.00,Wunderground v.1.15,2013-08-04 22:17:00,
2013-08-04 18:18:00,67.5,54.9,29.95,WNW,290,8.0,11.0,64,0.00,,,0.00,Wunderground v.1.15,2013-08-04 22:18:00,
2013-08-04 18:23:00,67.5,54.9,29.96,West,281,8.0,8.0,64,0.00,,,0.00,Wunderground v.1.15,2013-08-04 22:23:00,
2013-08-04 18:28:00,67.8,55.2,29.96,WNW,293,8.0,12.0,64,0.00,,,0.00,Wunderground v.1.15,2013-08-04 22:28:00,
2013-08-04 18:34:00,68.5,55.8,29.96,ENE,72,7.0,8.0,64,0.00,,,0.00,Wunderground v.1.15,2013-08-04 22:34:00,
2013-08-04 18:40:00,68.6,55.1,29.95,WNW,294,7.0,11.0,62,0.00,,,0.00,Wunderground v.1.15,2013-08-04 22:40:00,
2013-08-04 18:46:00,69.2,56.1,29.95,NW,309,7.0,10.0,63,0.00,,,0.00,Wunderground v.1.15,2013-08-04 22:46:00,
2013-08-04 18:52:00,68.6,54.6,29.95,WNW,290,8.0,13.0,61,0.00,,,0.00,Wunderground v.1.15,2013-08-04 22:52:00,
2013-08-04 18:57:00,68.3,54.3,29.95,West,274,10.0,16.0,61,0.00,,,0.00,Wunderground v.1.15,2013-08-04 22:57:00,
2013-08-04 19:03:00,68.3,54.3,29.95,WNW,288,9.0,10.0,61,0.00,,,0.00,Wunderground v.1.15,2013-08-04 23:03:00,
2013-08-04 19:09:00,68.1,54.1,29.95,WNW,293,9.0,14.0,61,0.00,,,0.00,Wunderground v.1.15,2013-08-04 23:09:00,
2013-08-04 19:15:00,67.9,54.8,29.95,North,360,10.0,11.0,63,0.00,,,0.00,Wunderground v.1.15,2013-08-04 23:15:00,
2013-08-04 19:21:00,67.8,54.3,29.96,WNW,288,9.0,11.0,62,0.00,,,0.00,Wunderground v.1.15,2013-08-04 23:21:00,
2013-08-04 19:26:00,67.8,54.7,29.96,West,278,8.0,14.0,63,0.00,,,0.00,Wunderground v.1.15,2013-08-04 23:26:00,
2013-08-04 19:32:00,67.6,55.0,29.96,WNW,284,7.0,14.0,64,0.00,,,0.00,Wunderground v.1.15,2013-08-04 23:32:00,
2013-08-04 19:37:00,67.5,54.5,29.96,West,280,8.0,13.0,63,0.00,,,0.00,Wunderground v.1.15,2013-08-04 23:37:00,
2013-08-04 19:43:00,67.2,54.6,29.96,WNW,290,7.0,9.0,64,0.00,,,0.00,Wunderground v.1.15,2013-08-04 23:43:00,
2013-08-04 19:49:00,66.9,54.7,29.96,WNW,285,7.0,10.0,65,0.00,,,0.00,Wunderground v.1.15,2013-08-04 23:49:00,
2013-08-04 19:53:00,66.8,55.1,29.96,WNW,288,7.0,8.0,66,0.00,,,0.00,Wunderground v.1.15,2013-08-04 23:53:00,
2013-08-04 20:00:00,66.5,54.8,29.96,WNW,287,6.0,9.0,66,0.00,,,0.00,Wunderground v.1.15,2013-08-05 00:00:00,
2013-08-04 20:06:00,66.2,54.9,29.96,WNW,290,6.0,6.0,67,0.00,,,0.00,Wunderground v.1.15,2013-08-05 00:06:00,
2013-08-04 20:12:00,66.0,54.7,29.96,WNW,285,6.0,10.0,67,0.00,,,0.00,Wunderground v.1.15,2013-08-05 00:12:00,
2013-08-04 20:18:00,65.6,54.8,29.96,WNW,300,6.0,8.0,68,0.00,,,0.00,Wunderground v.1.15,2013-08-05 00:18:00,
2013-08-04 20:23:00,65.3,54.9,29.96,WNW,290,5.0,5.0,69,0.00,,,0.00,Wunderground v.1.15,2013-08-05 00:23:00,
2013-08-04 20:28:00,65.0,55.0,29.96,WSW,242,5.0,7.0,70,0.00,,,0.00,Wunderground v.1.15,2013-08-05 00:28:00,
2013-08-04 20:34:00,64.8,54.8,29.96,WNW,293,5.0,5.0,70,0.00,,,0.00,Wunderground v.1.15,2013-08-05 00:34:00,
2013-08-04 20:40:00,64.5,54.5,29.96,WNW,294,4.0,6.0,70,0.00,,,0.00,Wunderground v.1.15,2013-08-05 00:40:00,
2013-08-04 20:45:00,64.4,54.8,29.97,WNW,302,4.0,4.0,71,0.00,,,0.00,Wunderground v.1.15,2013-08-05 00:45:00,
2013-08-04 20:51:00,64.3,54.7,29.97,WNW,291,4.0,6.0,71,0.00,,,0.00,Wunderground v.1.15,2013-08-05 00:51:00,
2013-08-04 20:56:00,64.2,54.6,29.97,WNW,293,4.0,5.0,71,0.00,,,0.00,Wunderground v.1.15,2013-08-05 00:56:00,
2013-08-04 21:02:00,64.0,54.4,29.97,NW,316,4.0,5.0,71,0.00,,,0.00,Wunderground v.1.15,2013-08-05 01:02:00,
2013-08-04 21:08:00,63.9,54.7,29.97,WNW,285,5.0,6.0,72,0.00,,,0.00,Wunderground v.1.15,2013-08-05 01:08:00,
2013-08-04 21:14:00,63.8,54.2,29.98,West,262,6.0,10.0,71,0.00,,,0.00,Wunderground v.1.15,2013-08-05 01:14:00,
2013-08-04 21:19:00,63.6,54.0,29.98,WNW,300,6.0,10.0,71,0.00,,,0.00,Wunderground v.1.15,2013-08-05 01:19:00,
2013-08-04 21:24:00,63.5,54.3,29.98,WNW,285,5.0,5.0,72,0.00,,,0.00,Wunderground v.1.15,2013-08-05 01:24:00,
2013-08-04 21:30:00,63.3,54.1,29.98,WNW,297,5.0,6.0,72,0.00,,,0.00,Wunderground v.1.15,2013-08-05 01:30:00,
2013-08-04 21:36:00,63.2,54.0,29.98,West,278,5.0,6.0,72,0.00,,,0.00,Wunderground v.1.15,2013-08-05 01:36:00,
2013-08-04 21:41:00,63.2,53.6,29.98,WNW,286,5.0,11.0,71,0.00,,,0.00,Wunderground v.1.15,2013-08-05 01:41:00,
2013-08-04 21:47:00,63.3,53.7,29.98,WNW,290,6.0,7.0,71,0.00,,,0.00,Wunderground v.1.15,2013-08-05 01:47:00,
2013-08-04 21:52:00,63.3,53.7,29.98,WNW,291,6.0,11.0,71,0.00,,,0.00,Wunderground v.1.15,2013-08-05 01:52:00,
2013-08-04 21:58:00,63.2,53.6,29.98,West,278,6.0,9.0,71,0.00,,,0.00,Wunderground v.1.15,2013-08-05 01:58:00,
2013-08-04 22:03:00,63.2,53.6,29.98,WNW,297,7.0,7.0,71,0.00,,,0.00,Wunderground v.1.15,2013-08-05 02:03:00,
2013-08-04 22:09:00,63.1,53.5,29.98,WNW,297,6.0,8.0,71,0.00,,,0.00,Wunderground v.1.15,2013-08-05 02:09:00,
2013-08-04 22:15:00,63.0,53.8,29.98,WNW,293,6.0,6.0,72,0.00,,,0.00,Wunderground v.1.15,2013-08-05 02:15:00,
2013-08-04 22:21:00,62.8,53.6,29.98,WNW,284,6.0,8.0,72,0.00,,,0.00,Wunderground v.1.15,2013-08-05 02:21:00,
2013-08-04 22:26:00,62.6,53.4,29.98,WNW,285,5.0,7.0,72,0.00,,,0.00,Wunderground v.1.15,2013-08-05 02:26:00,
2013-08-04 22:32:00,62.5,53.7,29.98,WNW,286,5.0,7.0,73,0.00,,,0.00,Wunderground v.1.15,2013-08-05 02:32:00,
2013-08-04 22:38:00,62.5,53.7,29.98,West,267,5.0,8.0,73,0.00,,,0.00,Wunderground v.1.15,2013-08-05 02:38:00,
2013-08-04 22:43:00,62.5,53.7,29.98,WNW,284,5.0,5.0,73,0.00,,,0.00,Wunderground v.1.15,2013-08-05 02:43:00,
2013-08-04 22:48:00,62.5,53.7,29.98,WNW,286,5.0,11.0,73,0.00,,,0.00,Wunderground v.1.15,2013-08-05 02:48:00,
2013-08-04 22:53:00,62.6,53.8,29.98,WSW,256,6.0,6.0,73,0.00,,,0.00,Wunderground v.1.15,2013-08-05 02:53:00,
2013-08-04 22:59:00,62.6,53.8,29.98,WNW,286,6.0,8.0,73,0.00,,,0.00,Wunderground v.1.15,2013-08-05 02:59:00,
2013-08-04 23:05:00,62.8,53.6,29.98,WNW,293,6.0,8.0,72,0.00,,,0.00,Wunderground v.1.15,2013-08-05 03:05:00,
2013-08-04 23:11:00,62.8,53.6,29.98,West,281,6.0,8.0,72,0.00,,,0.00,Wunderground v.1.15,2013-08-05 03:11:00,
2013-08-04 23:16:00,62.8,53.6,29.98,WNW,291,6.0,8.0,72,0.00,,,0.00,Wunderground v.1.15,2013-08-05 03:16:00,
2013-08-04 23:22:00,62.8,53.6,29.98,WNW,290,5.0,8.0,72,0.00,,,0.00,Wunderground v.1.15,2013-08-05 03:22:00,
2013-08-04 23:27:00,62.7,53.5,29.98,WNW,288,5.0,7.0,72,0.00,,,0.00,Wunderground v.1.15,2013-08-05 03:27:00,
2013-08-04 23:32:00,62.7,53.5,29.98,West,264,6.0,7.0,72,0.00,,,0.00,Wunderground v.1.15,2013-08-05 03:32:00,
2013-08-04 23:38:00,62.7,53.5,29.99,ENE,58,6.0,8.0,72,0.00,,,0.00,Wunderground v.1.15,2013-08-05 03:38:00,
2013-08-04 23:43:00,62.7,53.9,30.00,WNW,302,3.0,3.0,73,0.00,,,0.00,Wunderground v.1.15,2013-08-05 03:43:00,
2013-08-04 23:49:00,62.4,54.0,30.00,West,272,2.0,3.0,74,0.00,,,0.00,Wunderground v.1.15,2013-08-05 03:49:00,
2013-08-04 23:53:00,62.0,54.0,30.00,WNW,297,1.0,2.0,75,0.00,,,0.00,Wunderground v.1.15,2013-08-05 03:53:00,
2013-08-04 23:59:00,61.8,54.2,30.00,WNW,283,2.0,2.0,76,0.00,,,0.00,Wunderground v.1.15,2013-08-05 03:59:00,